FW0495 Weather Reports


Display with metric or nautical units.
time (UTC)temp
F
wind
direction
speed
MPH
gust
MPH
rain 1hr
in
rain 24hr
in
rain mn
in
humidity
%
barometer
mb
20240619004553 66 134 4.0 9.0 0.00 0.00 0.00 74 1007.7
20240619003052 66 207 2.0 7.0 0.00 0.00 0.00 73 1007.8
20240619001544 66 157 4.0 9.0 0.00 0.00 0.00 73 1007.8
20240619000050 67 162 2.0 7.0 0.00 0.00 0.00 72 1008.0
20240618234550 67 142 3.0 8.0 0.00 0.00 0.00 72 1008.0
20240618233042 67 153 3.0 9.0 0.00 0.00 0.00 72 1007.8
20240618231542 67 246 2.0 7.0 0.00 0.00 0.00 72 1008.0
20240618230041 67 200 1.0 9.0 0.00 0.00 0.00 72 1008.3
20240618224543 68 148 2.0 8.0 0.00 0.00 0.00 70 1008.5
20240618223039 68 292 2.0 8.0 0.00 0.00 0.00 72 1008.4
20240618221539 68 159 3.0 9.0 0.00 0.00 0.00 71 1008.4
20240618220039 68 201 4.0 11.0 0.00 0.00 0.00 72 1008.4
20240618214540 68 190 3.0 9.0 0.00 0.00 0.00 72 1008.4
20240618213040 68 190 3.0 10.0 0.00 0.00 0.00 71 1008.4
20240618211536 68 153 3.0 6.0 0.00 0.00 0.00 72 1008.2
20240618210034 68 223 2.0 10.0 0.00 0.00 0.00 72 1008.1
20240618204531 68 224 3.0 9.0 0.00 0.00 0.00 71 1008.0
20240618203030 68 125 3.0 10.0 0.00 0.00 0.00 71 1007.8
20240618201528 68 234 3.0 8.0 0.00 0.00 0.00 72 1007.8
20240618200028 68 190 3.0 8.0 0.00 0.00 0.00 71 1007.8
20240618194541 68 230 3.0 7.0 0.00 0.00 0.00 71 1008.0
20240618193024 68 223 2.0 6.0 0.00 0.00 0.00 72 1007.9
20240618191523 68 224 3.0 8.0 0.00 0.00 0.00 72 1007.9
20240618190021 68 150 2.0 8.0 0.00 0.00 0.00 73 1008.0
20240618184519 67 284 3.0 8.0 0.00 0.00 0.00 73 1007.9
20240618183025 68 173 4.0 9.0 0.00 0.00 0.00 73 1008.0
20240618181515 68 196 1.0 11.0 0.00 0.00 0.00 74 1007.9
20240618180015 67 140 3.0 7.0 0.00 0.00 0.00 73 1007.9
20240618174512 67 145 0.0 7.0 0.00 0.00 0.00 73 1007.8
20240618173009 66 162 5.0 9.0 0.00 0.00 0.00 74 1007.8
20240618171508 66 169 1.0 6.0 0.00 0.00 0.00 75 1007.8
20240618170005 65 185 1.0 7.0 0.00 0.00 0.00 77 1007.9
20240618164502 65 162 2.0 6.0 0.00 0.00 0.00 79 1007.9
20240618163100 64 130 4.0 9.0 0.00 0.00 0.00 79 1007.9
20240618161602 63 115 3.0 8.0 0.00 0.00 0.00 81 1007.9
20240618160059 63 128 4.0 7.0 0.00 0.00 0.00 81 1008.0
20240618154552 63 153 3.0 8.0 0.00 0.00 0.00 81 1007.9
20240618153056 63 185 0.0 6.0 0.00 0.00 0.00 82 1007.8
20240618151547 62 165 2.0 6.0 0.00 0.00 0.00 83 1007.7
20240618150044 62 182 2.0 8.0 0.00 0.00 0.00 83 1007.7
20240618144542 62 152 3.0 7.0 0.00 0.00 0.00 84 1007.7
20240618143041 61 175 2.0 6.0 0.00 0.00 0.00 84 1007.5
20240618141539 61 162 1.0 8.0 0.00 0.00 0.00 84 1007.5
20240618140039 61 150 3.0 10.0 0.00 0.00 0.00 84 1007.3
20240618134535 61 128 3.0 8.0 0.00 0.00 0.00 84 1007.1
20240618133054 61 137 3.0 8.0 0.00 0.00 0.00 84 1007.0
20240618131531 61 156 4.0 10.0 0.00 0.00 0.00 84 1006.8
20240618130029 61 96 4.0 9.0 0.00 0.00 0.00 84 1006.7
20240618124542 62 153 5.0 11.0 0.00 0.00 0.00 84 1006.6
20240618123025 62 136 5.0 8.0 0.00 0.00 0.00 83 1006.4
20240618121623 62 110 6.0 11.0 0.00 0.00 0.00 83 1006.4
20240618120020 62 130 4.0 9.0 0.00 0.00 0.00 82 1006.4
20240618114527 62 148 4.0 9.0 0.00 0.00 0.00 83 1006.2
20240618113020 62 90 3.0 8.0 0.00 0.00 0.00 83 1006.1
20240618111517 62 183 4.0 8.0 0.00 0.00 0.00 83 1006.1
20240618110027 62 84 5.0 10.0 0.00 0.00 0.00 83 1006.0
20240618104513 62 118 5.0 10.0 0.00 0.00 0.00 84 1006.0
20240618103012 63 150 4.0 10.0 0.00 0.00 0.00 84 1005.8
20240618101510 63 192 2.0 8.0 0.00 0.00 0.00 84 1005.9
20240618100010 63 107 2.0 7.0 0.00 0.00 0.00 84 1005.7
20240618094511 63 172 2.0 11.0 0.00 0.00 0.00 84 1005.8
20240618093008 63 132 3.0 8.0 0.00 0.00 0.00 83 1005.8
20240618091505 63 146 2.0 7.0 0.00 0.00 0.00 83 1006.0
20240618090007 63 134 1.0 8.0 0.00 0.00 0.00 83 1006.1
20240618084503 63 128 1.0 5.0 0.00 0.00 0.00 83 1006.0
20240618083003 63 150 2.0 6.0 0.00 0.00 0.00 83 1006.2
20240618081501 63 135 5.0 8.0 0.00 0.00 0.00 83 1006.1
20240618080101 63 142 2.0 7.0 0.00 0.00 0.00 82 1006.0
20240618074559 63 178 2.0 8.0 0.00 0.00 0.00 82 1006.1
20240618073106 63 127 3.0 8.0 0.00 0.00 0.00 82 1006.2
20240618071557 63 134 4.0 8.0 0.00 0.00 0.00 82 1006.2
20240618070056 63 161 4.0 8.0 0.00 0.00 0.00 82 1006.4
20240618064557 63 150 3.0 7.0 0.00 0.00 0.00 82 1006.4
20240618063055 63 150 0.0 7.0 0.00 0.00 0.00 82 1006.6
20240618061604 63 154 4.0 8.0 0.00 0.00 0.00 82 1006.5
20240618060102 63 215 0.0 5.0 0.00 0.00 0.00 81 1006.7
20240618054554 63 144 0.0 5.0 0.00 0.00 0.00 82 1006.8
20240618053058 63 147 0.0 0.0 0.00 0.00 0.00 81 1006.8
20240618051654 63 157 0.0 5.0 0.00 0.00 0.00 81 1006.8
20240618050052 63 186 0.0 4.0 0.00 0.00 0.00 81 1006.9
20240618044606 64 155 0.0 4.0 0.00 0.00 0.00 81 1006.7
20240618043051 64 160 0.0 1.0 0.00 0.00 0.00 81 1006.6
20240618041559 64 158 0.0 2.0 0.00 0.00 0.00 81 1006.5
20240618041520 64 158 0.0 2.0 0.00 0.00 0.00 81 1006.5
20240618040049 64 127 0.0 0.0 0.00 0.00 0.00 81 1006.4
20240618034626 63 125 0.0 0.0 0.00 0.00 0.00 81 1006.5
20240618033051 64 171 0.0 1.0 0.00 0.00 0.00 81 1006.6
20240618031607 64 169 0.0 0.0 0.00 0.00 0.00 80 1006.3
20240618030046 64 166 0.0 0.0 0.00 0.00 0.00 79 1006.4
20240618024547 65 188 1.0 2.0 0.00 0.00 0.00 78 1006.2
20240618023045 65 181 0.0 4.0 0.00 0.00 0.00 77 1006.1
20240618021550 66 188 0.0 2.0 0.00 0.00 0.00 76 1006.0
20240618020050 66 128 1.0 6.0 0.00 0.00 0.00 75 1006.1
20240618014544 67 272 0.0 5.0 0.00 0.00 0.00 75 1006.0
20240618013044 67 59 1.0 6.0 0.00 0.00 0.00 74 1006.0
20240618011543 67 216 0.0 5.0 0.00 0.00 0.00 74 1005.7
20240618010042 67 171 1.0 6.0 0.00 0.00 0.00 74 1005.7